Terminal Aerodrome Forecast
Issued by NWS Charleston, WV

Current Version | Previous Version | Graphics & Text | Print | Product List | Glossary On
Versions: 1 2 3 4 5 6 7 8 9 10 11 12 13 14 15 16 17 18 19 20 21 22 23 24
891
FTUS41 KRLX 231137
TAFCRW
TAF
KCRW 231137Z 2312/2412 00000KT 4SM BR SCT020 BKN080 BKN150
     FM231300 00000KT P6SM BKN070
     FM232200 VRB04KT 6SM -SHRA BR BKN012=

USA.gov is the U.S. government's official web portal to all federal, state and local government web resources and services.